This is the latest recevied weather packets stored in our database for station/object K4CRS-13. If no packets are shown the sender has not sent any weather packets the latest 10 day(s).
| Time | Temp. | Humidity | Pressure | Rain* | Wind** | Luminosity | Snow |
|---|---|---|---|---|---|---|---|
| 1777233546 | 26.67° C | 55% | 1046.4 hPa | 0 mm | - | 316 W/m² | - |
| 1777233245 | 26.67° C | 52% | 1046.5 hPa | 0 mm | - | 313 W/m² | - |
| 1777232941 | 27.22° C | 54% | 1046.6 hPa | 0 mm | - | 303 W/m² | - |
| 1777232639 | 27.78° C | 53% | 1046.7 hPa | 0 mm | - | 465 W/m² | - |
| 1777232337 | 27.22° C | 53% | 1046.7 hPa | 0 mm | - | 622 W/m² | - |
| 1777232033 | 26.67° C | 51% | 1046.7 hPa | 0 mm | - | 408 W/m² | - |
| 1777231731 | 27.22° C | 51% | 1046.5 hPa | 0 mm | - | 304 W/m² | - |
| 1777231427 | 27.22° C | 50% | 1046.9 hPa | 0 mm | - | 754 W/m² | - |
| 1777231123 | 27.22° C | 49% | 1047.1 hPa | 0 mm | - | 646 W/m² | - |
| 1777230818 | 27.22° C | 50% | 1046.9 hPa | 0 mm | - | 735 W/m² | - |
| 1777230514 | 27.22° C | 48% | 1047 hPa | 0 mm | - | 738 W/m² | - |
| 1777230211 | 27.78° C | 50% | 1047 hPa | 0 mm | - | 666 W/m² | - |
| 1777229907 | 26.67° C | 49% | 1047.1 hPa | 0 mm | - | 693 W/m² | - |
| 1777229604 | 27.22° C | 50% | 1047.1 hPa | 0 mm | - | 609 W/m² | - |
| 1777229301 | 27.78° C | 51% | 1047.1 hPa | 0 mm | - | 804 W/m² | - |
| 1777228998 | 27.78° C | 47% | 1047.2 hPa | 0 mm | - | 198 W/m² | - |
| 1777228694 | 27.78° C | 48% | 1047.1 hPa | 0 mm | - | 907 W/m² | - |
| 1777228390 | 27.78° C | 49% | 1047.3 hPa | 0 mm | - | 887 W/m² | - |
| 1777228086 | 27.22° C | 47% | 1047.4 hPa | 0 mm | - | 912 W/m² | - |
| 1777227785 | 27.22° C | 52% | 1047.3 hPa | 0 mm | - | 916 W/m² | - |
| 1777227483 | 27.22° C | 53% | 1047.8 hPa | 0 mm | - | 919 W/m² | - |
| 1777227177 | 27.22° C | 56% | 1047.6 hPa | 0 mm | - | 924 W/m² | - |
| 1777226875 | 26.67° C | 53% | 1047.7 hPa | 0 mm | - | 951 W/m² | - |
| 1777226573 | 26.11° C | 57% | 1048 hPa | 0 mm | - | 868 W/m² | - |
| 1777226269 | 25.56° C | 56% | 1047.7 hPa | 0 mm | - | 165 W/m² | - |
* Rain latest hour (hover to see other rain measurements)
** Current wind speed in m/s (hover to see current wind gust speed)